Regional Weather Roundup
Issued by NWS

Home | Current Version | Previous Version | Graphics & Text | Print | Product List | Glossary On
Versions: 1 2 3 4 5 6 7 8 9 10 11 12 13 14 15 16 17 18 19 20 21 22 23 24 25 26 27 28 29 30 31 32 33 34 35 36 37 38 39 40 41 42 43 44 45 46 47
000
ASUS43 KDMX 240407
RWRIA

WEATHER ROUNDUP FOR IOWA
NATIONAL WEATHER SERVICE DES MOINES IA
1100 PM CDT WED JUL 23 2014

NOTE: "FAIR" INDICATES FEW OR NO CLOUDS BELOW 12,000 FEET WITH NO
SIGNIFICANT WEATHER AND/OR OBSTRUCTIONS TO VISIBILITY.

* - THESE STATIONS ARE NOT NWS STATIONS...THUS NOT UNDER NWS
QUALITY CONTROL.  THEY ALSO DO NOT REPORT WEATHER SUCH
AS PRECIPITATION OR FOG.

IAZ001>003-012>014-020>022-031>034-043>046-240500-
   NORTHWEST IOWA

CITY           SKY/WX    TMP DP  RH WIND       PRES   REMARKS
CARROLL *      CLEAR     63  61  94 CALM      30.17S
CHEROKEE *     CLEAR     66  63  88 CALM      30.18R
DENISON *      CLEAR     68  64  88 E6        30.16S
LE MARS *      CLEAR     66  63  88 CALM      30.17S
ORANGE CITY *  CLEAR     70  59  68 E5        30.18S
SHELDON *      CLEAR     61  59  94 CALM      30.18S
SIOUX CITY     CLEAR     69  62  78 E3        30.16S
SPENCER        CLEAR     61  57  87 CALM      30.18S
STORM LAKE *   CLEAR     64  63  94 CALM      30.19R
$$

IAZ055>058-069>071-079>083-090>094-240500-
   SOUTHWEST IOWA

CITY           SKY/WX    TMP DP  RH WIND       PRES   REMARKS
ATLANTIC *     CLEAR     66  63  88 N3        30.17R
AUDUBON *      CLEAR     64  63  94 CALM      30.19S
CLARINDA *     CLEAR     70  64  83 VRB3      30.18R
COUNCIL BLFS *   N/A     72  66  83 E6        30.17R
CRESTON *      CLEAR     64  61  88 E5        30.18S
HARLAN  *      CLEAR     64  63  94 CALM      30.21S
LAMONI         CLEAR     68  59  73 E3        30.17R
RED OAK *      CLEAR     70  63  78 CALM      30.17S
SHENANDOAH *   PTCLDY    72  63  73 E6        30.17R
$$

IAZ047>049-059>061-072>074-084-240500-
   CENTRAL IOWA

CITY           SKY/WX    TMP DP  RH WIND       PRES   REMARKS
AMES           CLEAR     63  60  90 CALM      30.16S
ANKENY *       CLEAR     63  61  94 CALM      30.16S
CHARITON *     CLEAR     68  59  73 CALM      30.17S
DES MOINES     CLEAR     73  57  57 E3        30.16R
GRINNELL*      CLEAR     64  59  82 CALM      30.17S
KNOXVILLE *    CLEAR     70  59  68 CALM      30.15S
MARSHALLTOWN   CLEAR     63  60  90 CALM      30.16R
PELLA *        CLEAR     66  59  77 CALM      30.17R
PERRY *          N/A     63  61  94 CALM      30.17S
$$

IAZ004>006-015-016-023>025-035-036-240500-
   NORTH CENTRAL IOWA

CITY           SKY/WX    TMP DP  RH WIND       PRES   REMARKS
ALGONA *       CLEAR     64  59  82 E3        30.18R
CLARION *      CLEAR     63  59  88 E6        30.17S
ESTHERVILLE    CLEAR     61  55  81 CALM      30.17F
FORT DODGE *   CLEAR     63  57  82 CALM      30.18R
MASON CITY     CLEAR     61  57  87 CALM      30.18S
FOREST CITY *  CLEAR     61  59  94 CALM      30.17S
IOWA FALLS *   MOCLDY    64  59  82 CALM      30.18S
$$

IAZ007>011-017>019-026>030-037>042-050>054-066-240500-
   NORTHEAST IOWA

CITY           SKY/WX    TMP DP  RH WIND       PRES   REMARKS
CEDAR RAPIDS   CLEAR     62  56  80 CALM      30.14F
CHARLES CITY * CLEAR     64  57  77 NE5       30.16F
CLINTON *      MOCLDY    64  59  82 CALM      30.17S
DECORAH *      CLEAR     63  57  82 CALM      30.16R
DUBUQUE        PTCLDY    63  59  87 CALM      30.16R
MONTICELLO *   CLEAR     61  59  94 CALM      30.15S
OELWEIN *      CLEAR     66  59  77 NE3       30.17S
WATERLOO       CLEAR     64  60  87 CALM      30.14F
$$

IAZ064-065-067-068-078-240500-
   EAST CENTRAL IOWA

CITY           SKY/WX    TMP DP  RH WIND       PRES   REMARKS
DAVENPORT      PTCLDY    62  57  83 CALM      30.15S
IOWA CITY      CLEAR     65  60  84 CALM      30.16S
MT. PLEASANT * CLEAR     64  61  88 CALM      30.15S
MUSCATINE *    CLEAR     64  59  82 CALM      30.14F
QUAD CITIES    CLEAR     63  58  83 CALM      30.14R
$$

IAZ062-063-075>077-085>089-095>099-240500-
   SOUTHEAST IOWA

CITY           SKY/WX    TMP DP  RH WIND       PRES   REMARKS
BURLINGTON     CLEAR     63  59  87 CALM      30.15R
FAIRFIELD *    CLEAR     63  59  88 CALM      30.15F
FORT MADISON * CLEAR     64  63  94 CALM      30.16S
KEOKUK *       CLEAR     64  61  88 CALM      30.14S
OSKALOOSA *      N/A     68  59  73 E3        30.16F
CENTERVILLE *  CLEAR     61  59  94 NE3       30.18S
OTTUMWA        CLEAR     63  60  90 CALM      30.15F
WASHINGTON *   CLEAR     64  61  88 CALM      30.15F
$$

ABBREVIATIONS USED IN REMARKS
   TC - TEMPERATURES IN CELSIUS
  WCI - WIND CHILL INDEX
   HX - HEAT INDEX
  VSB - VISIBILITY
$$



USA.gov is the U.S. government's official web portal to all federal, state and local government web resources and services.